Simultaneous Nadir Overpasses (SNOs) Predictions

Prediction of SNOs between GOES-17 and METOP-C Satellite Orbit:

Table of predicted SNOs for the next 14.0 days since TLE Epoch: 9/24/2022
Index Date Time (GOES-17) GOES-17 Lat,Lon METOP-C Lat,Lon Distance(km) Time Diff (sec)
1 09/24/2022 06:23:29 0.05,-137.33 1.00,-133.16 475.34 80
2 09/25/2022 18:39:38 -0.05,-137.33 0.01,-137.72 43.32 80
3 09/28/2022 06:37:57 0.05,-137.32 0.04,-137.31 2.21 80
4 09/30/2022 18:38:46 -0.05,-137.30 -0.14,-136.87 49.23 80
5 10/02/2022 06:55:05 0.05,-137.28 -0.91,-141.46 477.41 80
6 10/03/2022 06:37:05 0.04,-137.26 0.20,-136.47 90.30 80
7 10/04/2022 18:53:14 -0.04,-137.24 0.79,-141.02 431.18 80
8 10/05/2022 18:35:13 -0.04,-137.22 -0.32,-136.03 136.30 80
9 10/07/2022 06:51:33 0.04,-137.19 -0.72,-140.62 391.02 80
